This demonstration page uses our WeatherBlox Daily Observations layout. Learn more.

Left ArrowRight Arrow

39.51506, -84.39828

Hourly Observations for January 16, 2019

Temp ( °F °C ) Dew Point ( °F °C ) Humidity (%) Winds ( mph kmh ) Pressure ( in mb ) Visibility ( mi km ) Precip ( " mm )
12:15 am 00:15 Cloudy with Mist and Fog 32 0 30 -1.3 91 91 SSW 13 20 30.18 1022 7 11 0.00 0.00
12:35 am 00:35 Cloudy with Mist and Fog 32 0 30 -1.2 92 92 SW 12 19 30.18 1022 5 8 0.00 0.00
12:55 am 00:55 Cloudy with Mist and Fog 32 0 30 -1.1 92 92 SW 13 20 30.18 1022 5 8 0.00 0.00
1:15 am 01:15 Cloudy with Mist and Fog 32 0 30 -1 93 93 SW 15 24 30.18 1022 4 6 0.00 0.00
1:35 am 01:35 Cloudy with Mist and Fog 32 0 31 -0.8 94 94 SW 13 20 30.18 1022 3 5 0.00 0.00
1:55 am 01:55 Cloudy with Mist and Fog 32 0 31 -0.7 95 95 SW 10 17 30.18 1022 2 3 0.00 0.00
2:15 am 02:15 Cloudy with Mist and Fog 32 0 31 -0.6 96 96 SW 8 13 30.18 1022 2 3 0.00 0.00
2:35 am 02:35 Cloudy with Drizzle 32 0 31 -0.5 96 96 SSW 9 15 30.18 1022 2 3 0.00 0.00
2:55 am 02:55 Cloudy with Mist and Fog 32 0.1 31 -0.4 96 96 SSW 9 15 30.18 1022 2 3 0.00 0.00
3:15 am 03:15 Cloudy with Mist and Fog 32 0.1 31 -0.3 97 97 SSW 9 15 30.21 1023 2 3 0.00 0.00
3:35 am 03:35 Cloudy with Drizzle 32 0.2 31 -0.3 96 96 SSW 8 13 30.21 1023 2 3 0.00 0.00
3:55 am 03:55 Cloudy with Drizzle 32 0.1 31 -0.3 97 97 SW 8 13 30.21 1023 2 3 0.00 0.00
4:15 am 04:15 Cloudy with Drizzle 32 0.2 32 -0.1 98 98 SSW 8 13 30.21 1023 2 3 0.00 0.00
4:35 am 04:35 Cloudy with Drizzle 32 0.2 32 -0.1 98 98 SW 7 11 30.21 1023 2 3 0.00 0.00
4:55 am 04:55 Cloudy with Mist and Fog 33 0.6 32 -0.1 95 95 WSW 7 11 30.21 1023 3 5 0.00 0.00
5:15 am 05:15 Cloudy with Drizzle 33 0.7 31 -0.3 93 93 W 7 11 30.21 1023 4 6 0.00 0.00
5:35 am 05:35 Cloudy with Light Snow 33 0.5 31 -0.5 93 93 W 7 11 30.21 1023 2 3 0.00 0.00
5:55 am 05:55 Cloudy with Light Snow 33 0.3 31 -0.6 94 94 W 7 11 30.21 1023 3 5 0.00 0.00
6:15 am 06:15 Cloudy 33 0.3 30 -1.1 90 90 WNW 6 9 30.24 1024 10 16 0.00 0.00
6:35 am 06:35 Cloudy with Light Snow 32 0.1 30 -0.9 93 93 WNW 3 6 30.24 1024 7 11 0.00 0.00
6:55 am 06:55 Cloudy 32 0.2 30 -1.1 91 91 W 3 6 30.24 1024 10 16 0.00 0.00
7:15 am 07:15 Cloudy 32 0.2 29 -1.4 89 89 WNW 3 6 30.24 1024 10 16 0.00 0.00
7:35 am 07:35 Cloudy 32 0.2 29 -1.4 89 89 W 3 6 30.27 1025 10 16 0.00 0.00
7:55 am 07:55 Cloudy 32 0.1 29 -1.5 89 89 Calm 30.27 1025 10 16 0.00 0.00
8:15 am 08:15 Cloudy 32 0 29 -1.5 90 90 Calm 30.27 1025 10 16 0.00 0.00
8:35 am 08:35 Cloudy 32 -0.1 29 -1.4 91 91 Calm 30.27 1025 10 16 0.00 0.00
8:55 am 08:55 Cloudy 32 0 29 -1.4 90 90 Calm 30.27 1025 10 16 0.00 0.00
9:15 am 09:15 Cloudy 32 0 29 -1.4 90 90 Calm 30.27 1025 10 16 0.00 0.00
9:35 am 09:35 Cloudy 32 0 30 -1.3 91 91 Calm 30.27 1025 10 16 0.00 0.00
9:55 am 09:55 Cloudy 32 0 30 -1.3 91 91 Calm 30.30 1026 10 16 0.00 0.00
10:15 am 10:15 Cloudy with Mist and Fog 33 0.3 30 -1.2 90 90 W 5 7 30.30 1026 7 11 0.00 0.00
10:35 am 10:35 Cloudy with Mist and Fog 33 0.4 30 -1.1 90 90 W 3 6 30.30 1026 7 11 0.00 0.00
10:55 am 10:55 Cloudy 33 0.4 30 -1.2 89 89 WSW 3 6 30.30 1026 10 16 0.00 0.00
11:15 am 11:15 Cloudy 33 0.6 30 -1.1 89 89 W 3 6 30.30 1026 7 11 0.00 0.00
11:35 am 11:35 Cloudy 33 0.6 30 -1.2 88 88 Calm 30.30 1026 10 16 0.00 0.00
11:55 am 11:55 Cloudy 34 0.9 29 -1.4 85 85 WSW 3 6 30.30 1026 10 16 0.00 0.00
12:15 pm 12:15 Cloudy 34 0.9 29 -1.5 84 84 W 3 6 30.30 1026 10 16 0.00 0.00
12:35 pm 12:35 Cloudy 34 0.9 29 -1.8 82 82 W 5 7 30.30 1026 10 16 0.00 0.00
12:55 pm 12:55 Cloudy 34 1 29 -1.7 82 82 W 3 6 30.30 1026 10 16 0.00 0.00
1:15 pm 13:15 Cloudy 34 1 29 -1.7 82 82 W 6 9 30.30 1026 7 11 0.00 0.00
1:35 pm 13:35 Cloudy 34 0.9 29 -1.7 83 83 WNW 7 11 30.30 1026 10 16 0.00 0.00
1:55 pm 13:55 Cloudy 34 1.1 28 -2.5 77 77 W 5 7 30.27 1025 10 16 0.00 0.00
2:15 pm 14:15 Cloudy 34 1.1 26 -3.1 74 74 WNW 6 9 30.30 1026 10 16 0.00 0.00
2:35 pm 14:35 Cloudy 34 1.2 27 -3 74 74 W 3 6 30.30 1026 10 16 0.00 0.00
2:55 pm 14:55 Cloudy 34 1.2 26 -3.1 73 73 W 5 7 30.30 1026 10 16 0.00 0.00
3:15 pm 15:15 Cloudy 34 1.1 27 -2.8 76 76 W 5 7 30.30 1026 10 16 0.00 0.00
3:35 pm 15:35 Cloudy 34 1.2 26 -3.1 73 73 WSW 3 6 30.30 1026 10 16 0.00 0.00
3:55 pm 15:55 Cloudy 34 1.2 27 -2.7 76 76 SW 5 7 30.30 1026 10 16 0.00 0.00
4:15 pm 16:15 Cloudy 34 1.2 27 -2.6 76 76 Calm 30.30 1026 10 16 0.00 0.00
4:35 pm 16:35 Cloudy 34 1.1 27 -2.8 76 76 SSW 3 6 30.30 1026 10 16 0.00 0.00
4:55 pm 16:55 Cloudy 34 1.2 27 -2.9 74 74 SW 5 7 30.30 1026 10 16 0.00 0.00
5:15 pm 17:15 Cloudy 34 1 27 -2.8 76 76 SW 5 7 30.30 1026 10 16 0.00 0.00
5:35 pm 17:35 Cloudy 34 0.9 27 -2.9 76 76 SSW 5 7 30.30 1026 10 16 0.00 0.00
5:55 pm 17:55 Cloudy 33 0.8 27 -2.9 77 77 SSW 5 7 30.30 1026 10 16 0.00 0.00
6:15 pm 18:15 Cloudy 34 1 27 -3 75 75 S 5 7 30.30 1026 10 16 0.00 0.00
6:35 pm 18:35 Cloudy 34 0.9 27 -2.9 76 76 S 5 7 30.33 1027 10 16 0.00 0.00
6:55 pm 18:55 Cloudy 33 0.7 27 -2.9 77 77 SSW 3 6 30.33 1027 10 16 0.00 0.00
7:15 pm 19:15 Cloudy 34 0.9 27 -3 75 75 S 3 6 30.33 1027 10 16 0.00 0.00
7:35 pm 19:35 Cloudy 33 0.8 27 -3 76 76 S 3 6 30.33 1027 10 16 0.00 0.00
7:55 pm 19:55 Cloudy 33 0.7 27 -2.8 78 78 SSE 3 6 30.33 1027 10 16 0.00 0.00
8:15 pm 20:15 Cloudy 33 0.7 27 -2.9 77 77 SSW 3 6 30.33 1027 10 16 0.00 0.00
8:35 pm 20:35 Cloudy 33 0.5 27 -2.6 80 80 S 6 9 30.33 1027 10 16 0.00 0.00
8:55 pm 20:55 Cloudy 33 0.6 27 -2.9 78 78 S 5 7 30.33 1027 10 16 0.00 0.00
9:15 pm 21:15 Cloudy 32 0.2 27 -2.6 82 82 S 3 6 30.33 1027 10 16 0.00 0.00
9:35 pm 21:35 Cloudy 33 0.7 27 -3 77 77 Calm 30.33 1027 10 16 0.00 0.00
9:55 pm 21:55 Cloudy 33 0.6 27 -2.9 78 78 Calm 30.33 1027 10 16 0.00 0.00
10:15 pm 22:15 Cloudy 33 0.3 27 -2.7 81 81 Calm 30.33 1027 10 16 0.00 0.00
10:35 pm 22:35 Cloudy 33 0.6 27 -2.9 78 78 Calm 30.33 1027 10 16 0.00 0.00
10:55 pm 22:55 Cloudy 33 0.7 27 -3 77 77 ESE 3 6 30.33 1027 10 16 0.00 0.00
11:15 pm 23:15 Cloudy 33 0.6 27 -2.7 79 79 ESE 3 6 30.33 1027 10 16 0.00 0.00
11:35 pm 23:35 Cloudy 33 0.7 27 -2.9 77 77 E 3 6 30.33 1027 10 16 0.00 0.00
11:55 pm 23:55 Cloudy 33 0.8 26 -3.1 75 75 Calm 30.33 1027 10 16 0.00 0.00

Powered by AerisWeather